KA1GJU-3 Weather Reports


Display with metric or nautical units.
time (UTC)temp
F
wind
direction
speed
MPH
gust
MPH
rain 1hr
in
rain 24hr
in
rain mn
in
humidity
%
barometer
mb
20260507075414 49 279 3.0 9.0 0.00 0.00 0.00 100
20260507074414 49 236 4.0 8.0 0.00 0.00 0.00 100
20260507073414 49 265 4.0 8.0 0.00 0.00 0.00 100
20260507072414 48 281 1.0 6.0 0.00 0.00 0.00 100
20260507071414 49 313 3.0 7.0 0.00 0.00 0.00 100
20260507070414 49 310 4.0 8.0 0.00 0.00 0.00 100
20260507065414 49 295 6.0 9.0 0.00 0.00 0.00 100
20260507064414 49 289 4.0 8.0 0.00 0.00 0.00 100
20260507063414 50 319 4.0 5.0 0.00 0.00 0.00 100
20260507062414 50 278 2.0 6.0 0.00 0.00 0.00 100
20260507061414 50 285 3.0 6.0 0.00 0.00 0.00 100
20260507060414 51 279 2.0 5.0 0.00 0.00 0.00 100
20260507055414 51 323 2.0 4.0 0.00 0.00 0.00 100
20260507054414 51 265 3.0 5.0 0.00 0.00 0.00 100
20260507053414 51 303 2.0 7.0 0.00 0.00 0.00 100
20260507052414 51 270 4.0 6.0 0.00 0.00 0.00 100
20260507051414 51 275 4.0 6.0 0.00 0.00 0.00 100
20260507050415 52 307 1.0 5.0 0.00 0.00 0.00 100
20260507045414 52 279 5.0 5.0 0.00 0.00 0.00 100
20260507044415 52 268 3.0 9.0 0.00 0.00 0.00 100
20260507043415 54 307 0.0 7.0 0.00 0.00 0.00 100
20260507042414 54 244 6.0 6.0 0.00 0.00 0.00 100
20260507041414 55 295 4.0 6.0 0.00 0.00 0.00 100
20260507040415 55 282 4.0 9.0 0.00 0.00 0.00 100
20260507035414 55 296 2.0 9.0 0.00 0.00 0.00 100
20260507034414 56 270 3.0 8.0 0.00 0.00 0.00 100
20260507033415 55 288 2.0 11.0 0.00 0.00 0.00 100
20260507032414 58 275 4.0 16.0 0.00 0.00 0.00 100
20260507031415 58 295 4.0 9.0 0.00 0.00 0.00 100
20260507030414 58 271 7.0 8.0 0.00 0.00 0.00 100
20260507025414 58 261 4.0 10.0 0.00 0.00 0.00 100
20260507024414 58 244 4.0 10.0 0.00 0.00 0.00 100
20260507023415 59 250 4.0 9.0 0.00 0.00 0.00 100
20260507022415 58 264 3.0 11.0 0.00 0.00 0.00 100
20260507021414 58 261 8.0 8.0 0.00 0.00 0.00 100
20260507020414 58 248 3.0 7.0 0.00 0.00 0.00 100
20260507015414 59 239 2.0 6.0 0.00 0.00 0.00 100
20260507014414 58 262 6.0 12.0 0.00 0.00 0.00 100
20260507013414 59 237 4.0 9.0 0.00 0.00 0.00 100
20260507012414 58 223 3.0 9.0 0.00 0.00 0.00 100
20260507011415 58 230 3.0 9.0 0.00 0.00 0.00 100
20260507010414 59 257 3.0 12.0 0.00 0.00 0.00 100
20260507005415 58 239 2.0 6.0 0.00 0.00 0.00 100
20260507004414 58 265 3.0 10.0 0.00 0.00 0.00 100
20260507003414 58 171 5.0 13.0 0.00 0.00 0.00 100
20260507002414 58 230 3.0 9.0 0.00 0.00 0.00 100
20260507001414 59 250 4.0 8.0 0.00 0.00 0.00 100
20260507000415 59 255 5.0 8.0 0.00 0.00 0.00 100
20260506235415 58 230 4.0 13.0 0.00 0.00 0.00 100
20260506234416 59 230 6.0 11.0 0.00 0.00 0.00 100
20260506233415 58 251 6.0 10.0 0.00 0.00 0.00 100
20260506232415 59 142 3.0 6.0 0.00 0.00 0.00 100
20260506231415 59 246 2.0 11.0 0.00 0.00 0.00 100
20260506230415 59 260 4.0 13.0 0.00 0.00 0.00 100
20260506225415 59 233 8.0 9.0 0.00 0.00 0.00 100
20260506224415 59 237 3.0 10.0 0.00 0.00 0.00 100
20260506223415 59 240 3.0 12.0 0.00 0.00 0.00 100
20260506222415 59 219 4.0 12.0 0.00 0.00 0.00 100
20260506221414 60 279 4.0 12.0 0.00 0.00 0.00 100
20260506220414 59 208 4.0 18.0 0.00 0.00 0.00 100
20260506215414 60 288 2.0 10.0 0.00 0.00 0.00 100
20260506214414 60 198 5.0 12.0 0.00 0.00 0.00 100
20260506213414 60 243 4.0 12.0 0.00 0.00 0.00 100
20260506212414 60 202 6.0 11.0 0.00 0.00 0.00 100
20260506211414 60 208 4.0 14.0 0.00 0.00 0.00 100
20260506210414 61 244 3.0 9.0 0.00 0.00 0.00 100
20260506205414 62 237 2.0 8.0 0.00 0.00 0.00 100
20260506204415 61 237 3.0 8.0 0.00 0.00 0.00 100
20260506203414 62 222 6.0 12.0 0.00 0.00 0.00 100
20260506202414 61 205 4.0 7.0 0.00 0.00 0.00 100
20260506201414 62 220 4.0 11.0 0.00 0.00 0.00 100
20260506200414 63 298 4.0 10.0 0.00 0.00 0.00 100
20260506195414 63 229 4.0 8.0 0.00 0.00 0.00 100
20260506194414 64 246 2.0 6.0 0.00 0.00 0.00 100
20260506193414 64 202 4.0 12.0 0.00 0.00 0.00 100
20260506192414 66 254 8.0 10.0 0.00 0.00 0.00 100
20260506191414 67 253 4.0 8.0 0.00 0.00 0.00 100
20260506190414 68 248 3.0 7.0 0.00 0.00 0.00 100
20260506185414 68 267 4.0 8.0 0.00 0.00 0.00 100
20260506184414 69 234 6.0 9.0 0.00 0.00 0.00 100
20260506183414 69 187 3.0 9.0 0.00 0.00 0.00 100
20260506182414 70 201 7.0 11.0 0.00 0.00 0.00 100
20260506181414 70 293 5.0 16.0 0.00 0.00 0.00 100
20260506180414 72 261 4.0 24.0 0.00 0.00 0.00 100
20260506175414 72 229 7.0 12.0 0.00 0.00 0.00 100
20260506174414 72 210 9.0 11.0 0.00 0.00 0.00 100
20260506173414 74 226 7.0 16.0 0.00 0.00 0.00 100
20260506172414 75 220 9.0 13.0 0.00 0.00 0.00 100
20260506171414 74 168 11.0 20.0 0.00 0.00 0.00 100
20260506170414 73 298 9.0 11.0 0.00 0.00 0.00 100
20260506165414 72 291 7.0 11.0 0.00 0.00 0.00 100
20260506164414 72 234 5.0 27.0 0.00 0.00 0.00 100
20260506163414 71 175 5.0 13.0 0.00 0.00 0.00 100
20260506162415 71 195 8.0 13.0 0.00 0.00 0.00 100
20260506161415 72 243 10.0 10.0 0.00 0.00 0.00 100
20260506160415 72 205 7.0 11.0 0.00 0.00 0.00 100
20260506155415 70 184 4.0 11.0 0.00 0.00 0.00 100
20260506154415 71 222 4.0 16.0 0.00 0.00 0.00 100
20260506153415 71 241 3.0 10.0 0.00 0.00 0.00 100
20260506152415 71 292 4.0 13.0 0.00 0.00 0.00 100
20260506151415 71 199 4.0 13.0 0.00 0.00 0.00 100
20260506150415 72 157 8.0 10.0 0.00 0.00 0.00 100
20260506145415 71 206 7.0 11.0 0.00 0.00 0.00 100
20260506144415 71 167 8.0 18.0 0.00 0.00 0.00 100
20260506143415 71 232 5.0 12.0 0.00 0.00 0.00 100
20260506142415 71 243 4.0 10.0 0.00 0.00 0.00 100
20260506141415 71 210 4.0 11.0 0.00 0.00 0.00 100
20260506140415 70 262 3.0 12.0 0.00 0.00 0.00 100
20260506135415 68 288 4.0 10.0 0.00 0.00 0.00 100
20260506134415 67 248 5.0 8.0 0.00 0.00 0.00 100
20260506133415 66 240 3.0 17.0 0.00 0.00 0.00 100
20260506132415 67 234 4.0 15.0 0.00 0.00 0.00 100
20260506131415 66 247 3.0 14.0 0.00 0.00 0.00 100
20260506130415 66 257 4.0 12.0 0.00 0.00 0.00 100
20260506125415 65 229 4.0 14.0 0.00 0.00 0.00 100
20260506124415 65 253 6.0 12.0 0.00 0.00 0.00 100
20260506123415 65 203 8.0 11.0 0.00 0.00 0.00 100
20260506122415 68 247 10.0 11.0 0.00 0.00 0.00 100
20260506121415 64 241 4.0 9.0 0.00 0.00 0.00 100
20260506120415 63 241 7.0 9.0 0.00 0.00 0.00 100
20260506115415 63 234 4.0 13.0 0.00 0.00 0.00 100
20260506114415 63 257 4.0 8.0 0.00 0.00 0.00 100
20260506113415 63 202 3.0 9.0 0.00 0.00 0.00 100
20260506112415 63 253 3.0 10.0 0.00 0.00 0.00 100
20260506111415 63 247 5.0 10.0 0.00 0.00 0.00 100
20260506110415 62 170 5.0 9.0 0.00 0.00 0.00 100
20260506105415 61 241 6.0 9.0 0.00 0.00 0.00 100
20260506104415 61 225 3.0 10.0 0.00 0.00 0.00 100
20260506103415 61 253 6.0 12.0 0.00 0.00 0.00 100
20260506102415 61 205 4.0 12.0 0.00 0.00 0.00 100
20260506101415 61 239 6.0 12.0 0.00 0.00 0.00 100
20260506100415 60 239 9.0 13.0 0.00 0.00 0.00 100
20260506095415 60 244 3.0 11.0 0.00 0.00 0.00 100
20260506094415 60 205 6.0 14.0 0.00 0.00 0.00 100
20260506093415 60 240 5.0 12.0 0.00 0.00 0.00 100
20260506092415 59 247 6.0 12.0 0.00 0.00 0.00 100
20260506091415 60 230 3.0 10.0 0.00 0.00 0.00 100
20260506090415 61 262 7.0 9.0 0.00 0.00 0.00 100
20260506085415 60 267 4.0 8.0 0.00 0.00 0.00 100
20260506084415 61 229 4.0 10.0 0.00 0.00 0.00 100
20260506083415 61 233 7.0 12.0 0.00 0.00 0.00 100
20260506082415 62 226 4.0 10.0 0.00 0.00 0.00 100
20260506081415 62 262 6.0 9.0 0.00 0.00 0.00 100
20260506080415 62 241 5.0 10.0 0.00 0.00 0.00 100